Lawrence, MA

9:14 PM EST on November 16, 2019 (GMT -0500)
Lawrence Municipal

Weather History for KLWM - August, 2019

Change the Weather History Date:

Sunday, August 25, 2019

  Actual Average Record
Temperature  
Mean Temperature 60 °F -  
Max Temperature 69 °F 78 °F 95 °F (1947)
Min Temperature 52 °F 56 °F 40 °F (1940)
Degree Days  
Heating Degree Days 5    
Growing Degree Days 10 (Base 50)    
Moisture  
Dew Point 53 °F    
Average Humidity 75    
Maximum Humidity 93    
Minimum Humidity 52    
Precipitation  
Precipitation 0.00 in - - ()
Sea Level Pressure  
Sea Level Pressure 30.34 in    
Wind  
Wind Speed 7 mph (NE)    
Max Wind Speed 17 mph    
Max Gust Speed 28 mph    
Visibility 10 miles    
Events Rain    
Averages and records for this station are not official NWS values.
T = Trace of Precipitation, MM = Missing Value Source: NWS Daily Summary

Daily Weather History Graph

Daily Weather History Graph

Search for Another Location

Airport or City:

Astronomy

Aug. 25, 2019 Rise Set
Actual Time 6:01 AM EDT 7:30 PM EDT
Civil Twilight 5:31 AM EDT 8:00 PM EDT
Nautical Twilight 4:56 AM EDT 8:36 PM EDT
Astronomical Twilight 4:17 AM EDT 9:14 PM EDT
Moon 12:29 AM EDT (8/25) 3:53 PM EDT (8/25)
Length of Visible Light 14h 28m
Length of Day
13h 29m
Waning Crescent, 29% of the Moon is Illuminated
Aug 25
Waning Crescent
Aug 30
New
Sep 5
First Quarter
Sep 14
Full
Sep 21
Last Quarter

Hourly Weather History & Observations

Time (EDT) Temp. Dew Point Humidity Pressure Visibility Wind Dir Wind Speed Gust Speed Precip Events Conditions
12:54 AM 59.0 °F 55.9 °F 90% 30.33 in 10.0 mi Calm Calm - N/A   Clear
1:54 AM 60.1 °F 57.0 °F 90% 30.32 in 10.0 mi NNE 3.5 mph - N/A   Mostly Cloudy
2:03 AM 60.1 °F 57.0 °F 90% 30.32 in 10.0 mi NNE 5.8 mph - 0.00 in Rain Light Rain
2:15 AM 60.1 °F 57.0 °F 90% 30.32 in 10.0 mi NNE 4.6 mph - 0.00 in   Overcast
2:54 AM 60.1 °F 57.0 °F 90% 30.31 in 10.0 mi NNE 5.8 mph - 0.00 in   Overcast
3:54 AM 60.1 °F 57.0 °F 90% 30.32 in 10.0 mi NNE 5.8 mph - N/A   Overcast
4:54 AM 57.9 °F 55.9 °F 93% 30.32 in 10.0 mi NNE 5.8 mph - N/A   Mostly Cloudy
5:54 AM 57.0 °F 55.0 °F 93% 30.33 in 10.0 mi North 4.6 mph - N/A   Partly Cloudy
6:54 AM 57.9 °F 55.9 °F 93% 30.35 in 10.0 mi NNE 8.1 mph - N/A   Clear
7:54 AM 61.0 °F 57.0 °F 87% 30.36 in 10.0 mi NNE 6.9 mph - N/A   Clear
8:54 AM 63.0 °F 55.0 °F 75% 30.37 in 10.0 mi NE 16.1 mph 21.9 mph N/A   Mostly Cloudy
9:01 AM 63.0 °F 55.0 °F 75% 30.37 in 10.0 mi NE 13.8 mph - N/A   Mostly Cloudy
9:09 AM 64.0 °F 55.0 °F 73% 30.37 in 10.0 mi NE 11.5 mph - N/A   Partly Cloudy
9:45 AM 64.9 °F 54.0 °F 68% 30.37 in 10.0 mi NE 13.8 mph - N/A   Mostly Cloudy
9:54 AM 64.9 °F 53.1 °F 65% 30.37 in 10.0 mi ENE 15.0 mph - N/A   Mostly Cloudy
10:54 AM 68.0 °F 54.0 °F 61% 30.38 in 10.0 mi NE 17.3 mph 27.6 mph N/A   Mostly Cloudy
11:54 AM 66.0 °F 54.0 °F 65% 30.38 in 10.0 mi NE 10.4 mph - N/A   Overcast
12:01 PM 66.9 °F 53.1 °F 61% 30.37 in 10.0 mi ENE 12.7 mph - N/A   Mostly Cloudy
12:54 PM 68.0 °F 53.1 °F 59% 30.37 in 10.0 mi ENE 11.5 mph 19.6 mph N/A   Partly Cloudy
1:54 PM 66.9 °F 51.1 °F 57% 30.37 in 10.0 mi ENE 11.5 mph 20.7 mph N/A   Partly Cloudy
2:54 PM 66.0 °F 48.9 °F 54% 30.35 in 10.0 mi ENE 13.8 mph 24.2 mph N/A   Clear
3:54 PM 66.9 °F 48.9 °F 52% 30.34 in 10.0 mi ENE 13.8 mph 21.9 mph N/A   Clear
5:54 PM 64.0 °F 46.9 °F 54% 30.33 in 10.0 mi ENE 9.2 mph - N/A   Clear
6:54 PM 62.1 °F 46.9 °F 58% 30.33 in 10.0 mi ENE 8.1 mph - N/A   Clear
7:54 PM 59.0 °F 46.9 °F 64% 30.33 in 10.0 mi ENE 4.6 mph - N/A   Clear
8:54 PM 54.0 °F 46.9 °F 77% 30.34 in 10.0 mi Calm Calm - N/A   Clear
9:54 PM 53.1 °F 48.0 °F 83% 30.33 in 10.0 mi North 3.5 mph - N/A   Clear
10:54 PM 52.0 °F 48.9 °F 89% 30.32 in 10.0 mi Calm Calm - N/A   Clear
11:54 PM 52.0 °F 48.9 °F 89% 30.30 in 10.0 mi NNE 5.8 mph - N/A   Clear